OE6ACM-10 Weather Reports


time (UTC)temp
C
wind
direction
speed
KPH
gust
KPH
rain 1hr
cm
rain 24hr
cm
rain mn
cm
humidity
%
barometer
mb
20260506180315 28 0.0 0.0 0.00 0.00 0.00 100 917.3
20260506175815 28 0.0 0.0 0.00 0.00 0.00 100 917.2
20260506175315 28 0.0 0.0 0.00 0.00 0.00 100 917.2
20260506174815 28 0.0 0.0 0.00 0.00 0.00 100 917.2
20260506174315 28 0.0 0.0 0.00 0.00 0.00 100 917.1
20260506173815 28 0.0 0.0 0.00 0.00 0.00 100 917.1
20260506173315 28 0.0 0.0 0.00 0.00 0.00 100 917.3
20260506172815 28 0.0 0.0 0.00 0.00 0.00 100 917.2
20260506172315 28 0.0 0.0 0.00 0.00 0.00 100 917.2
20260506171815 28 0.0 0.0 0.00 0.00 0.00 100 917.3
20260506171242 28 0.0 0.0 0.00 0.00 0.00 100 917.2
20260506170742 29 0.0 0.0 0.00 0.00 0.00 100 917.1
20260506170242 29 0.0 0.0 0.00 0.00 0.00 100 917.1
20260506165742 29 0.0 0.0 0.00 0.00 0.00 100 917.1
20260506165242 29 0.0 0.0 0.00 0.00 0.00 100 917.1
20260506164742 30 0.0 0.0 0.00 0.00 0.00 100 917.2
20260506164242 30 0.0 0.0 0.00 0.00 0.00 100 917.1
20260506163742 30 0.0 0.0 0.00 0.00 0.00 100 917.2
20260506163242 30 0.0 0.0 0.00 0.00 0.00 100 917.2
20260506162742 29 0.0 0.0 0.00 0.00 0.00 100 917.3
20260506162242 30 0.0 0.0 0.00 0.00 0.00 100 917.4
20260506161742 30 0.0 0.0 0.00 0.00 0.00 100 917.3
20260506161242 30 0.0 0.0 0.00 0.00 0.00 100 917.4
20260506160742 30 0.0 0.0 0.00 0.00 0.00 100 917.4
20260506160242 30 0.0 0.0 0.00 0.00 0.00 100 917.5
20260506155742 30 0.0 0.0 0.00 0.00 0.00 100 917.5
20260506155242 30 0.0 0.0 0.00 0.00 0.00 100 917.5
20260506154742 30 0.0 0.0 0.00 0.00 0.00 100 917.6
20260506154242 31 0.0 0.0 0.00 0.00 0.00 100 917.5
20260506153742 31 0.0 0.0 0.00 0.00 0.00 100 917.5
20260506153242 31 0.0 0.0 0.00 0.00 0.00 100 917.6
20260506152742 32 0.0 0.0 0.00 0.00 0.00 98 917.5
20260506152242 31 0.0 0.0 0.00 0.00 0.00 100 917.6
20260506151742 31 0.0 0.0 0.00 0.00 0.00 100 917.6
20260506151242 31 0.0 0.0 0.00 0.00 0.00 100 917.6
20260506150742 31 0.0 0.0 0.00 0.00 0.00 100 917.6
20260506150242 30 0.0 0.0 0.00 0.00 0.00 100 917.5
20260506145742 30 0.0 0.0 0.00 0.00 0.00 100 917.5
20260506145242 31 0.0 0.0 0.00 0.00 0.00 97 917.6
20260506144742 31 0.0 0.0 0.00 0.00 0.00 100 917.6
20260506144242 31 0.0 0.0 0.00 0.00 0.00 97 917.5
20260506143742 31 0.0 0.0 0.00 0.00 0.00 95 917.7
20260506143242 31 0.0 0.0 0.00 0.00 0.00 95 917.7
20260506142742 31 0.0 0.0 0.00 0.00 0.00 94 917.6
20260506142242 31 0.0 0.0 0.00 0.00 0.00 95 917.6
20260506141742 32 0.0 0.0 0.00 0.00 0.00 92 917.7
20260506141242 32 0.0 0.0 0.00 0.00 0.00 90 917.7
20260506140742 32 0.0 0.0 0.00 0.00 0.00 86 917.7
20260506140242 32 0.0 0.0 0.00 0.00 0.00 87 917.8
20260506135742 32 0.0 0.0 0.00 0.00 0.00 84 917.8
20260506135242 33 0.0 0.0 0.00 0.00 0.00 80 917.8
20260506134742 34 0.0 0.0 0.00 0.00 0.00 76 917.8
20260506134242 35 0.0 0.0 0.00 0.00 0.00 72 917.8
20260506133742 34 0.0 0.0 0.00 0.00 0.00 76 918.0
20260506133242 34 0.0 0.0 0.00 0.00 0.00 77 918.0
20260506132742 35 0.0 0.0 0.00 0.00 0.00 75 917.9
20260506132242 34 0.0 0.0 0.00 0.00 0.00 78 918.0
20260506131742 33 0.0 0.0 0.00 0.00 0.00 86 918.1
20260506131242 32 0.0 0.0 0.00 0.00 0.00 84 918.2
20260506130742 33 0.0 0.0 0.00 0.00 0.00 80 918.0
20260506130242 33 0.0 0.0 0.00 0.00 0.00 80 918.2
20260506125742 34 0.0 0.0 0.00 0.00 0.00 75 918.2
20260506125242 34 0.0 0.0 0.00 0.00 0.00 73 918.3
20260506124742 33 0.0 0.0 0.00 0.00 0.00 76 918.3
20260506124242 34 0.0 0.0 0.00 0.00 0.00 71 918.5
20260506123742 36 0.0 0.0 0.00 0.00 0.00 64 918.1
20260506123242 36 0.0 0.0 0.00 0.00 0.00 59 918.4
20260506122742 38 0.0 0.0 0.00 0.00 0.00 60 918.2
20260506122242 37 0.0 0.0 0.00 0.00 0.00 59 918.2
20260506121742 39 0.0 0.0 0.00 0.00 0.00 61 918.1
20260506121242 38 0.0 0.0 0.00 0.00 0.00 60 918.0
20260506120742 37 0.0 0.0 0.00 0.00 0.00 59 918.1
20260506120242 36 0.0 0.0 0.00 0.00 0.00 70 918.2
20260506115742 35 0.0 0.0 0.00 0.00 0.00 70 918.4
20260506115242 35 0.0 0.0 0.00 0.00 0.00 76 918.1
20260506114742 34 0.0 0.0 0.00 0.00 0.00 79 918.3
20260506114242 33 0.0 0.0 0.00 0.00 0.00 74 918.4
20260506113742 33 0.0 0.0 0.00 0.00 0.00 71 918.2
20260506113242 33 0.0 0.0 0.00 0.00 0.00 73 918.4
20260506112742 34 0.0 0.0 0.00 0.00 0.00 72 918.5
20260506112242 33 0.0 0.0 0.00 0.00 0.00 80 918.6
20260506111742 32 0.0 0.0 0.00 0.00 0.00 80 918.7
20260506111242 32 0.0 0.0 0.00 0.00 0.00 78 918.8
20260506110742 31 0.0 0.0 0.00 0.00 0.00 79 918.7
20260506110242 32 0.0 0.0 0.00 0.00 0.00 73 918.7
20260506105742 32 0.0 0.0 0.00 0.00 0.00 69 918.7
20260506105242 32 0.0 0.0 0.00 0.00 0.00 69 918.9
20260506104742 32 0.0 0.0 0.00 0.00 0.00 76 918.8
20260506104242 32 0.0 0.0 0.00 0.00 0.00 67 918.8
20260506103742 31 0.0 0.0 0.00 0.00 0.00 65 918.9
20260506103242 32 0.0 0.0 0.00 0.00 0.00 64 918.9
20260506102742 32 0.0 0.0 0.00 0.00 0.00 67 919.0
20260506102242 31 0.0 0.0 0.00 0.00 0.00 68 919.0
20260506101742 31 0.0 0.0 0.00 0.00 0.00 62 919.0
20260506101242 32 0.0 0.0 0.00 0.00 0.00 61 919.0
20260506100742 32 0.0 0.0 0.00 0.00 0.00 62 919.1
20260506100242 33 0.0 0.0 0.00 0.00 0.00 66 919.1
20260506095742 32 0.0 0.0 0.00 0.00 0.00 65 919.1
20260506095242 32 0.0 0.0 0.00 0.00 0.00 66 919.1
20260506094742 31 0.0 0.0 0.00 0.00 0.00 64 919.2
20260506094242 30 0.0 0.0 0.00 0.00 0.00 65 919.1
20260506093742 30 0.0 0.0 0.00 0.00 0.00 67 919.1
20260506093242 30 0.0 0.0 0.00 0.00 0.00 72 919.2
20260506092742 30 0.0 0.0 0.00 0.00 0.00 78 919.1
20260506092242 30 0.0 0.0 0.00 0.00 0.00 83 919.0
20260506091742 30 0.0 0.0 0.00 0.00 0.00 92 919.1
20260506091242 30 0.0 0.0 0.00 0.00 0.00 97 919.1
20260506090742 30 0.0 0.0 0.00 0.00 0.00 100 919.2
20260506090242 29 0.0 0.0 0.00 0.00 0.00 100 919.3
20260506085742 29 0.0 0.0 0.00 0.00 0.00 100 919.3
20260506085242 29 0.0 0.0 0.00 0.00 0.00 100 919.3
20260506084742 29 0.0 0.0 0.00 0.00 0.00 100 919.3
20260506084242 29 0.0 0.0 0.00 0.00 0.00 100 919.3
20260506083742 28 0.0 0.0 0.00 0.00 0.00 100 919.3
20260506083242 28 0.0 0.0 0.00 0.00 0.00 100 919.4
20260506082742 28 0.0 0.0 0.00 0.00 0.00 100 919.3
20260506082242 27 0.0 0.0 0.00 0.00 0.00 100 919.3
20260506081742 27 0.0 0.0 0.00 0.00 0.00 100 919.3
20260506081242 27 0.0 0.0 0.00 0.00 0.00 100 919.3
20260506080742 27 0.0 0.0 0.00 0.00 0.00 100 919.3
20260506080242 27 0.0 0.0 0.00 0.00 0.00 100 919.5
20260506073242 26 0.0 0.0 0.00 0.00 0.00 100 919.6
20260506072742 25 0.0 0.0 0.00 0.00 0.00 100 919.6
20260506072242 25 0.0 0.0 0.00 0.00 0.00 100 919.6
20260506071742 24 0.0 0.0 0.00 0.00 0.00 100 919.8
20260506071242 23 0.0 0.0 0.00 0.00 0.00 100 919.8
20260506070742 23 0.0 0.0 0.00 0.00 0.00 100 919.9
20260506070243 23 0.0 0.0 0.00 0.00 0.00 100 920.0
20260506062242 20 0.0 0.0 0.00 0.00 0.00 100 920.2
20260506061742 20 0.0 0.0 0.00 0.00 0.00 100 920.2
20260506061242 20 0.0 0.0 0.00 0.00 0.00 100 920.1
20260506060742 20 0.0 0.0 0.00 0.00 0.00 100 920.3
20260506060242 20 0.0 0.0 0.00 0.00 0.00 100 920.3
20260506051242 17 0.0 0.0 0.00 0.00 0.00 100 920.5
20260506050742 17 0.0 0.0 0.00 0.00 0.00 100 920.6
20260506050242 17 0.0 0.0 0.00 0.00 0.00 100 920.6
20260506044742 17 0.0 0.0 0.00 0.00 0.00 100 920.6
20260506044242 17 0.0 0.0 0.00 0.00 0.00 100 920.5
20260506043742 17 0.0 0.0 0.00 0.00 0.00 100 920.6
20260506043242 17 0.0 0.0 0.00 0.00 0.00 100 920.5
20260506042742 16 0.0 0.0 0.00 0.00 0.00 100 920.5
20260506042242 16 0.0 0.0 0.00 0.00 0.00 100 920.5
20260506041742 16 0.0 0.0 0.00 0.00 0.00 100 920.5
20260506041242 16 0.0 0.0 0.00 0.00 0.00 100 920.4
20260506040742 16 0.0 0.0 0.00 0.00 0.00 100 920.4
20260506040242 16 0.0 0.0 0.00 0.00 0.00 100 920.2
20260506035742 16 0.0 0.0 0.00 0.00 0.00 100 920.2
20260506035242 16 0.0 0.0 0.00 0.00 0.00 100 920.2
20260506034742 16 0.0 0.0 0.00 0.00 0.00 100 920.2
20260506034242 17 0.0 0.0 0.00 0.00 0.00 100 920.3
20260506033742 16 0.0 0.0 0.00 0.00 0.00 100 920.3
20260506033242 17 0.0 0.0 0.00 0.00 0.00 100 920.3
20260506032742 16 0.0 0.0 0.00 0.00 0.00 100 920.3
20260506032242 16 0.0 0.0 0.00 0.00 0.00 100 920.3
20260506031742 16 0.0 0.0 0.00 0.00 0.00 100 920.2
20260506031242 16 0.0 0.0 0.00 0.00 0.00 100 920.2
20260506030742 16 0.0 0.0 0.00 0.00 0.00 100 920.3
20260506030242 17 0.0 0.0 0.00 0.00 0.00 100 920.3
20260506025742 17 0.0 0.0 0.00 0.00 0.00 100 920.3
20260506025242 17 0.0 0.0 0.00 0.00 0.00 100 920.2
20260506024742 17 0.0 0.0 0.00 0.00 0.00 100 920.1
20260506024242 17 0.0 0.0 0.00 0.00 0.00 100 920.1
20260506023742 17 0.0 0.0 0.00 0.00 0.00 100 920.1
20260506023242 17 0.0 0.0 0.00 0.00 0.00 100 920.1
20260506022742 17 0.0 0.0 0.00 0.00 0.00 100 920.1
20260506022242 17 0.0 0.0 0.00 0.00 0.00 100 920.1
20260506021742 17 0.0 0.0 0.00 0.00 0.00 100 920.1
20260506021242 17 0.0 0.0 0.00 0.00 0.00 100 920.0
20260506020742 17 0.0 0.0 0.00 0.00 0.00 100 920.0
20260506020242 17 0.0 0.0 0.00 0.00 0.00 100 920.0
20260506015742 17 0.0 0.0 0.00 0.00 0.00 100 920.0
20260506015242 17 0.0 0.0 0.00 0.00 0.00 100 919.9
20260506014742 17 0.0 0.0 0.00 0.00 0.00 100 919.9
20260506014242 17 0.0 0.0 0.00 0.00 0.00 100 919.8
20260506013742 17 0.0 0.0 0.00 0.00 0.00 100 919.8
20260506013242 18 0.0 0.0 0.00 0.00 0.00 100 919.9
20260506012742 18 0.0 0.0 0.00 0.00 0.00 100 919.8
20260506011709 18 0.0 0.0 0.00 0.00 0.00 100 919.8
20260506011209 18 0.0 0.0 0.00 0.00 0.00 100 919.8
20260506010709 18 0.0 0.0 0.00 0.00 0.00 100 919.8
20260506010209 18 0.0 0.0 0.00 0.00 0.00 100 919.7
20260506005709 18 0.0 0.0 0.00 0.00 0.00 100 919.6
20260506005209 18 0.0 0.0 0.00 0.00 0.00 100 919.5
20260506004709 18 0.0 0.0 0.00 0.00 0.00 100 919.5
20260506004209 18 0.0 0.0 0.00 0.00 0.00 100 919.6
20260506003709 18 0.0 0.0 0.00 0.00 0.00 100 919.5
20260506003209 18 0.0 0.0 0.00 0.00 0.00 100 919.5
20260506002709 18 0.0 0.0 0.00 0.00 0.00 100 919.5
20260506002209 19 0.0 0.0 0.00 0.00 0.00 100 919.5
20260506001709 19 0.0 0.0 0.00 0.00 0.00 100 919.5
20260506001209 19 0.0 0.0 0.00 0.00 0.00 100 919.5
20260506000709 20 0.0 0.0 0.00 0.00 0.00 100 919.5
20260506000211 19 0.0 0.0 0.00 0.00 0.00 100 919.5
20260505235709 20 0.0 0.0 0.00 0.00 0.00 100 919.4
20260505235209 20 0.0 0.0 0.00 0.00 0.00 100 919.4
20260505234709 20 0.0 0.0 0.00 0.00 0.00 100 919.4
20260505234209 20 0.0 0.0 0.00 0.00 0.00 100 919.5
20260505233709 20 0.0 0.0 0.00 0.00 0.00 100 919.5
20260505233209 20 0.0 0.0 0.00 0.00 0.00 100 919.6
20260505232709 20 0.0 0.0 0.00 0.00 0.00 100 919.5
20260505232209 20 0.0 0.0 0.00 0.00 0.00 100 919.6
20260505231709 20 0.0 0.0 0.00 0.00 0.00 100 919.6
20260505231209 20 0.0 0.0 0.00 0.00 0.00 100 919.6
20260505230709 20 0.0 0.0 0.00 0.00 0.00 100 919.6
20260505230209 20 0.0 0.0 0.00 0.00 0.00 100 919.6
20260505225709 20 0.0 0.0 0.00 0.00 0.00 100 919.6
20260505225209 21 0.0 0.0 0.00 0.00 0.00 100 919.5
20260505224709 21 0.0 0.0 0.00 0.00 0.00 100 919.6
20260505224209 20 0.0 0.0 0.00 0.00 0.00 100 919.6
20260505223709 21 0.0 0.0 0.00 0.00 0.00 100 919.5
20260505223209 21 0.0 0.0 0.00 0.00 0.00 100 919.6
20260505222709 21 0.0 0.0 0.00 0.00 0.00 100 919.5
20260505222209 21 0.0 0.0 0.00 0.00 0.00 100 919.5
20260505221709 21 0.0 0.0 0.00 0.00 0.00 100 919.5
20260505221209 21 0.0 0.0 0.00 0.00 0.00 100 919.4
20260505220709 21 0.0 0.0 0.00 0.00 0.00 100 919.4
20260505220209 21 0.0 0.0 0.00 0.00 0.00 100 919.3
20260505215709 21 0.0 0.0 0.00 0.00 0.00 100 919.2
20260505215209 21 0.0 0.0 0.00 0.00 0.00 100 919.2
20260505214709 22 0.0 0.0 0.00 0.00 0.00 100 919.1
20260505214209 22 0.0 0.0 0.00 0.00 0.00 100 919.1
20260505213709 22 0.0 0.0 0.00 0.00 0.00 100 919.1
20260505213209 22 0.0 0.0 0.00 0.00 0.00 100 919.1
20260505212709 22 0.0 0.0 0.00 0.00 0.00 100 919.0
20260505212209 22 0.0 0.0 0.00 0.00 0.00 100 919.0
20260505211709 22 0.0 0.0 0.00 0.00 0.00 100 919.0
20260505211209 22 0.0 0.0 0.00 0.00 0.00 100 919.0
20260505210709 22 0.0 0.0 0.00 0.00 0.00 100 918.9
20260505210209 23 0.0 0.0 0.00 0.00 0.00 100 918.9
20260505205709 23 0.0 0.0 0.00 0.00 0.00 100 918.9
20260505205209 23 0.0 0.0 0.00 0.00 0.00 100 918.8
20260505204709 23 0.0 0.0 0.00 0.00 0.00 100 918.8
20260505204209 23 0.0 0.0 0.00 0.00 0.00 100 918.7
20260505203709 23 0.0 0.0 0.00 0.00 0.00 100 918.8
20260505203209 23 0.0 0.0 0.00 0.00 0.00 100 918.7
20260505202709 23 0.0 0.0 0.00 0.00 0.00 100 918.7
20260505202209 24 0.0 0.0 0.00 0.00 0.00 100 918.6
20260505201709 23 0.0 0.0 0.00 0.00 0.00 100 918.6
20260505201209 24 0.0 0.0 0.00 0.00 0.00 100 918.7
20260505200709 24 0.0 0.0 0.00 0.00 0.00 100 918.7
20260505200209 24 0.0 0.0 0.00 0.00 0.00 100 918.7
20260505195709 24 0.0 0.0 0.00 0.00 0.00 100 918.7
20260505195209 25 0.0 0.0 0.00 0.00 0.00 100 918.7
20260505194709 25 0.0 0.0 0.00 0.00 0.00 100 918.6
20260505194209 25 0.0 0.0 0.00 0.00 0.00 100 918.6
20260505193709 25 0.0 0.0 0.00 0.00 0.00 100 918.6
20260505193209 25 0.0 0.0 0.00 0.00 0.00 100 918.5
20260505192709 25 0.0 0.0 0.00 0.00 0.00 100 918.4
20260505192209 25 0.0 0.0 0.00 0.00 0.00 100 918.4
20260505191709 25 0.0 0.0 0.00 0.00 0.00 100 918.4
20260505191209 26 0.0 0.0 0.00 0.00 0.00 100 918.5
20260505190709 26 0.0 0.0 0.00 0.00 0.00 100 918.5
20260505190209 26 0.0 0.0 0.00 0.00 0.00 100 918.4
20260505185709 26 0.0 0.0 0.00 0.00 0.00 100 918.3
20260505184736 26 0.0 0.0 0.00 0.00 0.00 100 918.3
20260505184236 27 0.0 0.0 0.00 0.00 0.00 100 918.2
20260505183736 27 0.0 0.0 0.00 0.00 0.00 100 918.2
20260505183236 27 0.0 0.0 0.00 0.00 0.00 100 918.2
20260505182736 27 0.0 0.0 0.00 0.00 0.00 100 918.1
20260505182236 27 0.0 0.0 0.00 0.00 0.00 100 918.0
20260505181736 27 0.0 0.0 0.00 0.00 0.00 100 918.0
20260505181236 27 0.0 0.0 0.00 0.00 0.00 100 917.8
20260505180736 28 0.0 0.0 0.00 0.00 0.00 100 917.9